Location: Most
(50.5133°N, 13.6207°E)
Time: 11:15:17
(UTC+01:00)

SEEDS - Pass Details

Date: 28 November 2021
Orbit: 584 x 600 km, 97.6° (Epoch: 22 January)

Event Time Altitude Azimuth Distance (km) Brightness Sun altitude
Rises 16:56:51 0° 211° (SSW) 2,829 ? -7.9°
Reaches altitude 10° 16:59:48 10° 234° (SW) 1,930 ? -8.3°
Maximum altitude 17:02:19 15° 271° (W) 1,605 ? -8.7°
Drops below altitude 10° 17:04:50 10° 308° (NW) 1,934 ? -9.0°
Sets 17:07:49 0° 332° (NNW) 2,838 ? -9.5°
